Regional Weather Roundup
Issued by NWS

Home | Current Version | Previous Version | Graphics & Text | Print | Product List | Glossary On
Versions: 1 2 3 4 5 6 7 8 9 10 11 12 13 14 15 16 17 18 19 20 21 22 23 24 25 26 27 28 29 30 31 32 33 34 35 36 37 38 39 40 41 42 43 44 45 46 47 48 49 50
000
ASUS45 KABQ 191601
RWRNM
WEATHER ROUNDUP FOR NEW MEXICO
NATIONAL WEATHER SERVICE ALBUQUERQUE NM
900 AM MST FRI DEC 19 2014

NOTE: "FAIR" MEANS FEW OR NO CLOUDS BELOW 12,000 FEET AGL WITH NO
       SIGNIFICANT WEATHER OR OBSTRUCTIONS TO VISION.

      THIS PRODUCT IS RELEASED AS TWO VERSIONS.  ONE VERSION NEAR
      THE TOP OF THE HOUR CONTAINING PRELIMINARY DATA FROM ALBUQUERQUE
      AND OTHER STATIONS.  A FINAL VERSION WITH ADDITIONAL DATA IS
      ISSUED ABOUT 10 MINUTES AFTER THE HOUR.

NMZ501-503-504-510>518-191700-
NORTHWEST PLATEAU/NORTHCENTRAL MOUNTAINS

CITY           SKY/WX    TMP DP  RH WIND       PRES   REMARKS
FARMINGTON     FOG       24  23  96 E6        30.25R VSB 3/4 WCI  17
SANTA FE       SUNNY     30  22  72 N15       30.18R WCI  19
TAOS           CLOUDY    19  16  86 N5        30.21R WCI  13

$$
NMZ402-403-502-505>509-191700-
WESTCENTRAL MOUNTAINS/SOUTHWEST MOUNTAINS

CITY           SKY/WX    TMP DP  RH WIND       PRES   REMARKS
GALLUP         SUNNY     27  19  72 NE3       30.26R
GRANTS         CLOUDY    29  26  89 NW12G17   30.26R WCI  19
SILVER CITY    SUNNY     34  32  93 NW6       30.23R WCI  29

$$
NMZ407-409-411-412-191700-
SOUTHERN DESERTS

CITY           SKY/WX    TMP DP  RH WIND       PRES   REMARKS
DEMING         SUNNY     32  32 100 CALM      30.22R
HOLLOMAN AFB   MOSUNNY   39  39 100 N10       30.21R WCI  33
ALAMOGORDO     MOSUNNY   41  37  87 N13       30.21R
T OR C         SUNNY     38  28  67 N6        30.23R WCI  33

$$
NMZ519>523-191700-
CENTRAL VALLEYS/CENTRAL HIGHLANDS

CITY           SKY/WX    TMP DP  RH WIND       PRES   REMARKS
ALBUQUERQUE    MOSUNNY   37  25  61 NW9       30.24R WCI  30
DOUBLE EAGLE   MOSUNNY   36  25  64 NW14      30.24R WCI  27
MORIARTY ARPT  FAIR      33  25  70 NW16      30.19R WCI  23
CLINES CORNERS SUNNY     28  23  81 NW21G28   30.12R WCI  15
BELEN          FAIR      32  30  91 N3        30.25R
SOCORRO        NOT AVBL

$$
NMZ524>526-539-540-191700-
SOUTHCENTRAL MOUNTAINS

CITY           SKY/WX    TMP DP  RH WIND       PRES   REMARKS
RUIDOSO        SUNNY     32  23  69 NW13      30.20R WCI  22

$$
NMZ527>531-191700-
NORTHEAST HIGHLANDS/NORTHEAST PLAINS

CITY           SKY/WX    TMP DP  RH WIND       PRES   REMARKS
LAS VEGAS      SUNNY     29  20  69 NE7       30.12R WCI  22
RATON          SUNNY     27  23  85 E7        30.11R WCI  19
CLAYTON        SUNNY     38  32  79 CALM      30.12R

$$
NMZ532>537-191700-
EASTCENTRAL PLAINS

CITY           SKY/WX    TMP DP  RH WIND       PRES   REMARKS
TUCUMCARI      CLOUDY    36  30  79 N6        30.15R WCI  31
CANNON AFB     CLOUDY    37  32  82 VRB5      30.14R WCI  33
CLOVIS AIRPORT CLOUDY    36  34  93 S5        30.15R WCI  32

$$
NMZ028-029-538-191700-
SOUTHEAST PLAINS

CITY           SKY/WX    TMP DP  RH WIND       PRES   REMARKS
ROSWELL        SUNNY     42  30  62 NE3       30.18R
ARTESIA        SUNNY     46  32  57 VRB6      30.18R
CARLSBAD       SUNNY     46  35  65 E3        30.17R
HOBBS          FOG       36  36 100 CALM      30.18R VSB 3/8


$$


USA.gov is the U.S. government's official web portal to all federal, state and local government web resources and services.